Regional Weather Roundup
Issued by NWS

Home | Current Version | Previous Version | Graphics & Text | Print | Product List | Glossary On
Versions: 1 2 3 4 5 6 7 8 9 10 11 12 13 14 15 16 17 18 19 20 21 22 23 24 25 26 27 28 29 30 31 32 33 34 35 36 37 38 39 40 41 42 43 44 45 46 47 48 49 50
000
ASUS43 KLMK 170210
RWRKY
KENTUCKY REGIONAL WEATHER ROUNDUP
NATIONAL WEATHER SERVICE LOUISVILLE KY
1000 PM EDT TUE SEP 16 2014

NOTE "FAIR" INDICATES FEW OR NO CLOUDS BELOW 12,000 FEET
WITH NO SIGNIFICANT WEATHER AND/OR OBSTRUCTIONS TO VISIBILITY.

KYZ001>023-026-027-061>063-070>075-170300-
WESTERN AND SOUTH CENTRAL KENTUCKY

CITY           SKY/WX    TMP DP  RH WIND       PRES   REMARKS
PADUCAH        CLEAR     58  52  80 N5        30.10R
HENDERSON      CLEAR     55  50  82 N5        30.11R
OWENSBORO      CLEAR     59  53  80 N3        30.11R
HOPKINSVILLE   CLEAR     60  56  85 N5        30.08R
BOWLING GREEN  PTCLDY    62  53  72 N3        30.08R
GLASGOW        CLEAR     59  53  80 N5        30.08R
$$

KYZ024-025-028>034-038-045-046-053-170300-
NORTH CENTRAL KENTUCKY

CITY           SKY/WX    TMP DP  RH WIND       PRES   REMARKS
LOUISVILLE/SDF CLEAR     58  53  84 N6        30.11R
LOUISVILLE/LOU CLEAR     58  52  80 N3        30.11S
FORT KNOX      CLEAR     55  53  94 N3        30.10R
$$

KYZ035>037-039>044-047>052-055>060-089>105-170300-
NORTHEAST KENTUCKY

CITY           SKY/WX    TMP DP  RH WIND       PRES   REMARKS
LEXINGTON      CLEAR     56  52  86 NE7       30.10R
COVINGTON      CLOUDY    59  51  75 N6        30.11S
FRANKFORT      CLEAR     54  52  93 NW3       30.10R
$$

KYZ054-064>069-076>088-106>120-170300-
SOUTHEAST KENTUCKY

CITY           SKY/WX    TMP DP  RH WIND       PRES   REMARKS
JACKSON        PTCLDY    56  54  93 CALM      30.09R FOG
LONDON         PTCLDY    59  55  87 NE5       30.08S
SOMERSET       NOT AVBL
MIDDLESBORO    MOCLDY    65  59  82 NW3       30.07R
MONTICELLO     MOCLDY    60  58  93 CALM      30.08S
$$



USA.gov is the U.S. government's official web portal to all federal, state and local government web resources and services.